This demonstration page uses our WeatherBlox Daily Observations layout. Learn more.

Left ArrowRight Arrow

Hourly Observations for June 18, 2020

Temp ( °F °C ) Dew Point ( °F °C ) Humidity (%) Winds ( mph kmh ) Pressure ( in mb ) Visibility ( mi km ) Precip ( " mm )
12:56 am 00:56 Clear 78 25.3 67 19.6 71 71 SSE 13 20 29.87 1012 10 16 0.00 0.00
1:56 am 01:56 Clear 76 24.6 67 19.6 74 74 SSE 13 20 29.87 1012 10 16 0.00 0.00
2:56 am 02:56 Clear 76 24.2 67 19.5 75 75 SSE 15 24 29.86 1011 10 16 0.00 0.00
3:56 am 03:56 Clear 75 24 67 19.3 75 75 SSE 14 22 29.87 1012 10 16 0.00 0.00
4:56 am 04:56 Clear 74 23.5 67 19.2 77 77 SSE 13 20 29.87 1012 10 16 0.00 0.00
5:56 am 05:56 Sunny 73 22.8 66 19.1 80 80 SSE 12 19 29.86 1011 10 16 0.00 0.00
6:56 am 06:56 Sunny 73 23 67 19.3 80 80 SSE 10 17 29.87 1012 10 16 0.00 0.00
7:56 am 07:56 Sunny 76 24.5 67 19.7 75 75 S 12 19 29.87 1012 10 16 0.00 0.00
8:56 am 08:56 Sunny 78 25.8 68 20.1 71 71 SSE 10 17 29.88 1012 10 16 0.00 0.00
9:56 am 09:56 Partly Cloudy 80 26.7 69 20.3 68 68 SSE 14 22 29.87 1012 10 16 0.00 0.00
10:56 am 10:56 Mostly Cloudy 82 28 69 20.8 65 65 SSE 10 17 29.88 1012 10 16 0.00 0.00
11:56 am 11:56 Cloudy 83 28.3 69 20.3 62 62 SE 6 9 29.89 1012 10 16 0.00 0.00
12:56 pm 12:56 Mostly Cloudy 85 29.7 69 20.5 58 58 SSE 12 19 29.84 1010 10 16 0.00 0.00
1:56 pm 13:56 Cloudy 86 29.9 69 20.7 58 58 SE 13 20 29.81 1009 10 16 0.00 0.00
2:15 pm 14:15 Cloudy with Light Rain and Nearby Thunderstorms 82 28 70 21 66 66 S 23 37 29.83 1010 9 14 0.00 0.00
2:56 pm 14:56 Cloudy with Thunderstorms 76 24.3 71 21.4 84 84 S 5 7 29.85 1011 10 16 0.15 3.81
3:33 pm 15:33 Cloudy with Light Rain 77 25 72 22 83 83 NW 3 6 29.83 1010 10 16 0.00 0.00
3:56 pm 15:56 Mostly Cloudy with Drizzle 78 25.7 74 23.1 86 86 E 7 11 29.81 1010 10 16 0.01 0.25
4:56 pm 16:56 Mostly Cloudy 79 26 74 23.6 87 87 Calm 29.81 1009 10 16 0.00 0.00
5:56 pm 17:56 Mostly Sunny 78 25.5 73 22.8 85 85 N 7 11 29.82 1010 10 16 0.00 0.00
6:56 pm 18:56 Cloudy with Drizzle 75 23.7 71 21.6 88 88 NW 9 15 29.86 1011 10 16 0.00 0.00
7:25 pm 19:25 Cloudy 72 22 68 20 88 88 N 13 20 29.85 1011 10 16 0.00 0.00
7:56 pm 19:56 Cloudy 70 20.9 67 19.5 92 92 NNE 7 11 29.87 1011 10 16 0.00 0.00
8:41 pm 20:41 Cloudy 70 21 66 19 88 88 N 10 17 29.90 1012 10 16 0.00 0.00
8:56 pm 20:56 Cloudy 69 20.4 66 19 92 92 N 10 17 29.89 1012 10 16 0.00 0.00
9:26 pm 21:26 Cloudy 68 20 66 19 94 94 NNW 9 15 29.93 1014 10 16 0.00 0.00
9:56 pm 21:56 Cloudy with Thunderstorms 68 19.9 64 17.7 87 87 NNW 13 20 29.95 1014 10 16 0.00 0.00
10:26 pm 22:26 Mostly Cloudy with Thunderstorms 66 19 64 18 94 94 N 7 11 29.96 1014 10 16 0.00 0.00
10:48 pm 22:48 Mostly Cloudy with Light Rain 66 19 64 18 94 94 N 6 9 29.95 1014 10 16 0.00 0.00
10:56 pm 22:56 Cloudy with Light Rain 66 18.8 64 17.6 93 93 N 5 7 29.96 1014 10 16 0.02 0.51
10:57 pm 22:57 Cloudy with Light Rain 66 19 64 18 94 94 NW 5 7 29.97 1015 10 16 0.00 0.00
11:12 pm 23:12 Cloudy with Light Rain 66 19 64 18 94 94 N 7 11 29.97 1015 10 16 0.00 0.00
11:56 pm 23:56 Cloudy with Drizzle 65 18.3 63 17.1 93 93 N 7 11 29.97 1015 10 16 0.00 0.00

Powered by AerisWeather